Zurück zum Katalog

SL-6 R/B(2)

AktivHEO
NORAD 12827·ROCKET BODY·🇷🇺 Russia

Gestartet Sep 11, 1981 von Plesetsk Cosmodrome

Loading…

Nächste Überflüge (nächste 24 Stunden)

TLE

AktuellSource: Space-Track

Epoche: Sep 14, 2026, 11:17 UTC

1 12827U 81088F   26257.47080106 -.00000023  00000-0  59570-4 0  9999
2 12827  62.8800 316.0659 4818345 241.8494  61.7413  5.48848779902060

Verfolge SL-6 R/B(2) in Echtzeit mit AllMySat

Download on the App Store